CW1621 Weather Reports


Display with metric or nautical units.
time (UTC)temp
F
wind
direction
speed
MPH
gust
MPH
rain 1hr
in
rain 24hr
in
rain mn
in
humidity
%
barometer
mb
20260903194103 53 94 10.0 18.0 0.00 0.28 0.27 87 1014.9
20260903193603 53 74 13.0 15.0 0.00 0.28 0.27 85 1014.9
20260903193104 53 88 11.0 13.0 0.00 0.28 0.27 86 1015.0
20260903192604 54 75 13.0 15.0 0.00 0.28 0.27 84 1014.7
20260903192103 54 85 12.0 16.0 0.00 0.28 0.27 86 1014.7
20260903191604 53 91 11.0 17.0 0.00 0.28 0.27 87 1014.9
20260903191103 53 94 12.0 16.0 0.00 0.28 0.27 86 1015.0
20260903190603 53 86 12.0 15.0 0.00 0.28 0.27 84 1014.8
20260903185603 53 83 8.0 13.0 0.00 0.28 0.27 88 1015.1
20260903185103 53 96 10.0 12.0 0.00 0.28 0.27 86 1015.2
20260903184103 53 92 9.0 13.0 0.00 0.28 0.27 87 1015.2
20260903183603 52 113 8.0 12.0 0.00 0.28 0.27 86 1015.5
20260903183103 53 102 9.0 12.0 0.00 0.28 0.27 87 1015.2
20260903182604 52 95 8.0 12.0 0.00 0.28 0.27 86 1015.4
20260903182103 52 97 9.0 12.0 0.00 0.28 0.27 85 1015.3
20260903181604 52 85 9.0 12.0 0.00 0.28 0.27 89 1015.4
20260903181103 52 94 7.0 10.0 0.00 0.28 0.27 87 1015.3
20260903180603 52 98 7.0 12.0 0.00 0.28 0.27 87 1015.2
20260903175104 52 90 5.0 7.0 0.00 0.28 0.27 88 1015.3
20260903174604 51 106 5.0 8.0 0.00 0.28 0.27 90 1015.5
20260903173103 50 69 4.0 7.0 0.00 0.28 0.27 92 1015.5
20260903172604 50 77 7.0 9.0 0.00 0.28 0.27 92 1015.5
20260903171603 50 76 5.0 7.0 0.00 0.28 0.27 91 1015.5
20260903171104 50 82 3.0 5.0 0.00 0.28 0.27 91 1015.5
20260903170603 50 69 5.0 6.0 0.00 0.28 0.27 91 1015.5
20260903170103 51 68 5.0 7.0 0.00 0.28 0.27 92 1015.2
20260903165103 51 69 5.0 6.0 0.00 0.28 0.27 90 1015.2
20260903164603 50 81 3.0 5.0 0.00 0.28 0.27 92 1015.2
20260903164104 50 67 3.0 6.0 0.00 0.29 0.27 92 1015.3
20260903163603 50 94 3.0 6.0 0.00 0.29 0.27 92 1015.3
20260903163103 50 93 2.0 6.0 0.00 0.29 0.27 93 1015.4
20260903162603 50 105 3.0 5.0 0.00 0.29 0.27 94 1015.2
20260903162103 49 66 3.0 5.0 0.00 0.29 0.27 93 1015.2
20260903161604 49 60 3.0 5.0 0.00 0.30 0.27 94 1015.1
20260903161103 49 14 1.0 3.0 0.01 0.30 0.27 93 1015.1
20260903160603 49 12 0.0 0.0 0.01 0.31 0.27 94 1015.0
20260903160106 49 12 0.0 1.0 0.01 0.31 0.27 94 1014.9
20260903155604 49 12 0.0 0.0 0.01 0.31 0.27 94 1014.8
20260903155103 49 277 0.0 0.0 0.02 0.31 0.27 95 1014.9
20260903154604 49 277 0.0 0.0 0.02 0.32 0.27 95 1014.9
20260903154105 49 277 0.0 0.0 0.02 0.32 0.27 95 1014.9
20260903153603 49 277 0.0 1.0 0.02 0.32 0.27 96 1014.8
20260903153104 49 271 0.0 0.0 0.03 0.32 0.27 96 1014.8
20260903152603 49 271 0.0 0.0 0.03 0.32 0.27 96 1014.7
20260903152103 49 271 0.0 0.0 0.03 0.32 0.27 96 1014.8
20260903151604 49 271 0.0 0.0 0.04 0.32 0.27 96 1014.8
20260903151103 49 271 0.0 0.0 0.03 0.31 0.26 96 1014.7
20260903150603 49 271 0.0 0.0 0.04 0.31 0.26 96 1014.5
20260903150104 49 271 0.0 0.0 0.04 0.31 0.26 96 1014.5
20260903145603 49 271 0.0 0.0 0.04 0.31 0.26 96 1014.5
20260903145104 49 271 1.0 3.0 0.04 0.30 0.25 96 1014.3
20260903144603 49 271 0.0 2.0 0.04 0.30 0.25 96 1014.2
20260903144103 49 271 0.0 1.0 0.04 0.30 0.25 96 1014.2
20260903143604 48 271 0.0 2.0 0.04 0.30 0.25 95 1014.1
20260903143104 48 271 0.0 3.0 0.03 0.29 0.24 95 1014.2
20260903142604 48 271 0.0 3.0 0.03 0.29 0.24 95 1014.2
20260903142104 48 271 1.0 3.0 0.03 0.29 0.24 95 1014.4
20260903141603 49 271 2.0 3.0 0.02 0.28 0.23 95 1014.3
20260903141104 49 271 3.0 3.0 0.02 0.28 0.23 95 1014.0
20260903140603 49 271 1.0 3.0 0.01 0.27 0.22 95 1013.8
20260903135604 49 271 5.0 6.0 0.01 0.27 0.22 95 1013.8
20260903135104 49 271 5.0 6.0 0.00 0.26 0.21 95 1013.8
20260903133103 49 271 2.0 3.0 0.00 0.26 0.21 95 1013.3
20260903132603 49 271 2.0 3.0 0.00 0.26 0.21 95 1013.2
20260903132104 49 271 0.0 1.0 0.00 0.26 0.21 95 1013.1
20260903131104 49 271 1.0 3.0 0.01 0.26 0.21 94 1013.1
20260903130603 49 271 2.0 3.0 0.01 0.26 0.21 94 1012.9
20260903125604 49 271 2.0 3.0 0.01 0.26 0.21 94 1012.6
20260903125103 49 271 1.0 3.0 0.01 0.26 0.21 94 1012.6
20260903124604 49 271 3.0 3.0 0.01 0.26 0.21 93 1012.6
20260903124104 49 271 3.0 5.0 0.01 0.26 0.21 93 1012.6
20260903123603 49 271 5.0 6.0 0.01 0.26 0.21 94 1012.6
20260903123103 49 271 5.0 6.0 0.01 0.26 0.21 94 1012.5
20260903122604 49 271 5.0 6.0 0.01 0.26 0.21 94 1012.5
20260903122103 49 271 6.0 6.0 0.02 0.26 0.21 94 1012.5
20260903121603 49 271 5.0 7.0 0.02 0.26 0.21 94 1012.5
20260903121104 49 271 3.0 6.0 0.01 0.25 0.20 95 1012.5
20260903120603 49 271 3.0 6.0 0.01 0.25 0.20 95 1012.4
20260903115604 49 271 2.0 3.0 0.01 0.25 0.20 94 1012.5
20260903115103 49 271 1.0 2.0 0.01 0.25 0.20 94 1012.4
20260903114603 49 271 1.0 2.0 0.01 0.25 0.20 94 1012.4
20260903114103 49 271 3.0 6.0 0.01 0.25 0.20 94 1012.4
20260903113603 49 271 5.0 6.0 0.01 0.25 0.20 94 1012.4
20260903112604 49 270 2.0 3.0 0.01 0.25 0.20 96 1012.3
20260903112103 49 270 2.0 6.0 0.01 0.24 0.19 96 1012.2
20260903111604 50 204 1.0 3.0 0.01 0.24 0.19 96 1011.8
20260903111104 50 184 2.0 2.0 0.01 0.24 0.19 96 1011.8
20260903110103 50 184 1.0 3.0 0.02 0.24 0.19 96 1011.7
20260903105603 50 184 2.0 3.0 0.03 0.24 0.19 96 1011.6
20260903105104 50 184 2.0 3.0 0.03 0.24 0.19 96 1011.6
20260903104603 50 184 3.0 3.0 0.03 0.24 0.19 96 1011.6
20260903103604 50 184 3.0 5.0 0.05 0.24 0.19 96 1011.6
20260903103103 50 187 3.0 5.0 0.05 0.24 0.19 96 1011.6
20260903102604 50 188 3.0 5.0 0.05 0.24 0.19 96 1011.6
20260903102104 50 206 3.0 3.0 0.04 0.23 0.18 96 1011.5
20260903101604 50 206 3.0 3.0 0.04 0.23 0.18 96 1011.5
20260903101103 50 206 0.0 0.0 0.04 0.23 0.18 96 1011.6
20260903100603 50 206 0.0 0.0 0.04 0.23 0.18 96 1011.7
20260903100104 50 206 0.0 0.0 0.03 0.22 0.17 96 1011.7
20260903095603 50 206 0.0 0.0 0.03 0.21 0.16 96 1011.7
20260903095103 50 206 0.0 0.0 0.03 0.21 0.16 95 1011.7
20260903094603 50 206 0.0 0.0 0.03 0.21 0.16 95 1011.6
20260903094104 50 206 0.0 0.0 0.03 0.20 0.15 95 1011.6
20260903093603 50 211 0.0 0.0 0.02 0.19 0.14 95 1011.7
20260903093104 50 242 0.0 0.0 0.02 0.19 0.14 95 1011.7
20260903092604 50 242 0.0 0.0 0.03 0.19 0.14 95 1011.6
20260903092104 50 242 0.0 0.0 0.03 0.19 0.14 95 1011.6
20260903091604 50 242 0.0 0.0 0.03 0.19 0.14 95 1011.6
20260903091103 50 242 0.0 0.0 0.04 0.19 0.14 95 1011.8
20260903090603 50 242 0.0 0.0 0.05 0.19 0.14 95 1011.9
20260903085603 50 240 0.0 1.0 0.07 0.18 0.13 95 1012.1
20260903085103 50 240 0.0 0.0 0.07 0.18 0.13 95 1012.1
20260903084604 50 240 0.0 0.0 0.07 0.18 0.13 94 1012.2
20260903084103 50 240 0.0 0.0 0.06 0.17 0.12 94 1012.3
20260903083104 50 240 1.0 2.0 0.08 0.17 0.12 95 1012.2
20260903082603 50 240 0.0 2.0 0.07 0.16 0.11 95 1012.2
20260903082103 50 240 1.0 3.0 0.08 0.16 0.11 94 1012.2
20260903081604 50 235 1.0 3.0 0.09 0.16 0.11 94 1012.2
20260903081104 50 235 3.0 5.0 0.09 0.15 0.10 94 1012.3
20260903080603 50 335 0.0 0.0 0.09 0.14 0.09 93 1012.3
20260903080104 50 15 0.0 0.0 0.08 0.13 0.08 93 1012.4
20260903075604 50 15 1.0 3.0 0.01 0.11 0.06 93 1012.4
20260903074603 50 29 3.0 3.0 0.02 0.11 0.06 92 1012.1
20260903074103 51 25 1.0 3.0 0.02 0.11 0.06 92 1012.2
20260903073104 51 349 1.0 3.0 0.00 0.09 0.04 91 1012.1
20260903072604 51 356 1.0 3.0 0.00 0.09 0.04 91 1012.2
20260903072103 51 0 1.0 3.0 0.04 0.08 0.03 91 1012.0
20260903071603 51 4 2.0 3.0 0.03 0.07 0.02 90 1012.1
20260903071105 51 348 1.0 6.0 0.02 0.06 0.01 90 1012.2
20260903070604 51 24 2.0 3.0 0.01 0.05 0.00 90 1012.4
20260903070103 52 350 2.0 3.0 0.01 0.05 0.00 89 1012.3
20260903065603 52 311 0.0 2.0 0.01 0.05 0.05 88 1012.6
20260903064604 52 225 1.0 5.0 0.00 0.04 0.04 87 1012.5
20260903064104 52 24 3.0 6.0 0.00 0.04 0.04 86 1012.2
20260903063603 52 29 2.0 5.0 0.00 0.04 0.04 86 1012.3
20260903063103 52 26 1.0 3.0 0.00 0.04 0.04 86 1012.3
20260903062603 52 11 1.0 2.0 0.00 0.04 0.04 86 1012.2
20260903062104 52 11 0.0 0.0 0.00 0.04 0.04 86 1012.2
20260903061603 52 11 0.0 0.0 0.00 0.04 0.04 85 1012.2
20260903061104 52 6 0.0 0.0 0.00 0.04 0.04 85 1012.2
20260903060604 52 5 1.0 3.0 0.00 0.04 0.04 85 1012.3
20260903060104 52 4 2.0 3.0 0.00 0.04 0.04 85 1012.3
20260903055603 52 340 1.0 3.0 0.00 0.04 0.04 85 1012.3
20260903054604 52 342 1.0 3.0 0.00 0.04 0.04 85 1012.2
20260903053604 53 342 1.0 2.0 0.00 0.04 0.04 85 1012.3
20260903053103 53 308 1.0 3.0 0.00 0.04 0.04 85 1012.3
20260903052603 53 287 2.0 6.0 0.00 0.04 0.04 85 1012.4
20260903052103 53 272 1.0 3.0 0.00 0.04 0.04 84 1012.4
20260903051604 53 288 0.0 0.0 0.00 0.04 0.04 84 1012.3
20260903050105 53 310 2.0 5.0 0.00 0.04 0.04 83 1012.4
20260903045603 53 316 2.0 5.0 0.00 0.04 0.04 83 1012.2
20260903045105 54 332 2.0 5.0 0.00 0.04 0.04 83 1012.1
20260903044603 54 32 1.0 3.0 0.00 0.04 0.04 83 1012.1
20260903044104 54 2 3.0 6.0 0.00 0.04 0.04 83 1012.1
20260903043103 54 340 2.0 3.0 0.00 0.04 0.04 82 1012.2
20260903042603 54 306 2.0 5.0 0.00 0.04 0.04 82 1012.1
20260903042104 55 306 2.0 3.0 0.00 0.04 0.04 81 1012.1
20260903041604 55 287 3.0 5.0 0.00 0.04 0.04 80 1012.1
20260903041103 55 301 6.0 12.0 0.00 0.04 0.04 81 1012.0
20260903040605 55 280 6.0 12.0 0.00 0.04 0.04 81 1011.8
20260903035603 56 284 6.0 10.0 0.00 0.04 0.04 80 1011.5
20260903035104 56 287 7.0 12.0 0.00 0.04 0.04 80 1011.4
20260903034603 56 289 7.0 13.0 0.00 0.04 0.04 80 1011.4
20260903034104 56 290 7.0 12.0 0.00 0.04 0.04 80 1011.4
20260903033602 56 294 7.0 14.0 0.00 0.04 0.04 79 1011.3
20260903032603 57 281 10.0 18.0 0.00 0.04 0.04 77 1010.9
20260903032102 57 286 8.0 15.0 0.00 0.04 0.04 76 1010.7
20260903031603 57 284 5.0 12.0 0.00 0.04 0.04 76 1010.7
20260903031103 58 286 12.0 15.0 0.00 0.04 0.04 76 1010.7
20260903030603 59 303 6.0 10.0 0.00 0.04 0.04 73 1010.2
20260903025103 60 283 10.0 17.0 0.00 0.04 0.04 69 1010.0
20260903024602 60 288 12.0 15.0 0.00 0.04 0.04 68 1009.9
20260903024103 60 290 11.0 14.0 0.00 0.04 0.04 68 1009.9
20260903023602 61 290 14.0 22.0 0.00 0.04 0.04 67 1009.7
20260903023102 61 285 14.0 20.0 0.00 0.04 0.04 67 1009.7
20260903022102 61 294 6.0 13.0 0.00 0.04 0.04 68 1009.5
20260903020603 62 283 5.0 10.0 0.00 0.04 0.04 71 1009.5
20260903015603 62 56 1.0 3.0 0.00 0.04 0.04 71 1009.3
20260903015103 62 63 0.0 0.0 0.00 0.04 0.04 69 1009.3
20260903014102 63 63 0.0 0.0 0.00 0.04 0.04 68 1008.9
20260903013603 63 63 0.0 0.0 0.00 0.04 0.04 69 1009.0
20260903013102 63 63 0.0 3.0 0.00 0.04 0.04 69 1009.0
20260903012602 63 63 2.0 3.0 0.00 0.04 0.04 69 1008.8
20260903012103 63 63 2.0 3.0 0.00 0.04 0.04 68 1008.8
20260903011602 63 65 0.0 0.0 0.00 0.04 0.04 68 1008.8
20260903011103 63 65 0.0 1.0 0.00 0.04 0.04 68 1008.8
20260903010602 63 65 1.0 3.0 0.00 0.04 0.04 68 1008.8
20260903005602 63 64 2.0 3.0 0.00 0.04 0.04 68 1008.8
20260903005102 63 63 2.0 5.0 0.00 0.04 0.04 68 1008.8
20260903004603 63 62 3.0 6.0 0.00 0.04 0.04 68 1008.8
20260903004103 63 66 5.0 7.0 0.00 0.04 0.04 68 1008.8
20260903003602 63 55 5.0 7.0 0.00 0.04 0.04 68 1008.9
20260903003102 63 65 2.0 3.0 0.00 0.04 0.04 67 1008.8
20260903002602 63 63 2.0 3.0 0.00 0.04 0.04 67 1008.8
20260903001603 64 56 5.0 9.0 0.00 0.04 0.04 67 1008.9
20260903001102 64 58 5.0 7.0 0.00 0.04 0.04 67 1009.0
20260903000603 63 74 5.0 7.0 0.00 0.04 0.04 67 1009.3
20260902235603 64 71 9.0 12.0 0.00 0.04 0.04 67 1009.1
20260902235102 64 79 7.0 12.0 0.00 0.04 0.04 66 1009.0
20260902234102 64 50 5.0 12.0 0.00 0.04 0.04 67 1009.1
20260902233102 63 76 5.0 12.0 0.00 0.04 0.04 68 1009.4
20260902232102 64 83 5.0 9.0 0.00 0.04 0.04 66 1009.2
20260902231102 64 56 6.0 13.0 0.00 0.04 0.04 67 1009.2
20260902230603 64 34 9.0 13.0 0.00 0.04 0.04 67 1009.1
20260902225603 64 62 5.0 13.0 0.00 0.04 0.04 67 1009.2
20260902225102 64 73 12.0 16.0 0.00 0.04 0.04 68 1009.2
20260902224602 64 88 10.0 15.0 0.00 0.04 0.04 67 1009.1
20260902223603 64 66 8.0 14.0 0.00 0.04 0.04 68 1009.2
20260902223102 64 67 10.0 14.0 0.00 0.04 0.04 68 1009.2
20260902222603 64 69 12.0 15.0 0.00 0.04 0.04 68 1009.3
20260902222104 64 74 10.0 16.0 0.00 0.04 0.04 66 1009.3
20260902221602 64 85 10.0 15.0 0.00 0.04 0.04 67 1009.4
20260902220603 63 98 10.0 14.0 0.00 0.04 0.04 68 1009.3
20260902215602 63 77 6.0 15.0 0.00 0.04 0.04 68 1009.4
20260902215103 62 84 7.0 14.0 0.00 0.04 0.04 70 1009.8
20260902214602 62 73 10.0 17.0 0.00 0.04 0.04 68 1009.8
20260902214103 62 83 8.0 13.0 0.00 0.04 0.04 70 1009.9
20260902213603 62 75 7.0 14.0 0.00 0.04 0.04 68 1010.0
20260902213102 62 96 11.0 14.0 0.00 0.04 0.04 68 1010.1
20260902212602 62 97 10.0 14.0 0.00 0.04 0.04 70 1010.2
20260902212103 62 98 11.0 15.0 0.00 0.04 0.04 70 1010.2
20260902211603 61 94 9.0 14.0 0.00 0.04 0.04 70 1010.3
20260902210602 61 91 9.0 15.0 0.00 0.04 0.04 70 1010.8
20260902205602 61 87 11.0 18.0 0.00 0.04 0.04 68 1011.0
20260902205103 60 92 13.0 17.0 0.00 0.04 0.04 70 1011.0
20260902204602 60 98 14.0 20.0 0.00 0.04 0.04 69 1011.1
20260902204103 60 94 14.0 20.0 0.00 0.04 0.04 69 1011.1
20260902203602 60 92 14.0 20.0 0.00 0.04 0.04 74 1011.1
20260902203102 60 104 9.0 18.0 0.00 0.04 0.04 76 1011.2
20260902202603 59 102 6.0 15.0 0.00 0.04 0.04 78 1011.4
20260902201103 58 63 9.0 15.0 0.00 0.04 0.04 81 1011.5
20260902200603 58 118 7.0 12.0 0.00 0.04 0.04 80 1011.6
20260902195102 57 106 8.0 13.0 0.00 0.04 0.04 84 1012.1
20260902194602 57 123 7.0 12.0 0.00 0.04 0.04 85 1012.1